When you browse on this site, cookies collect data to enhance your experience and personalize the content and advertising you see.
Visit our Privacy Policy to learn more. By continuing to use the site, you agree to this use of cookies and data.
  • In Spain
  • List of Countries
  • For 7 days
  • Water Temperature
  • Satellite Maps
  • Weather Map
  • Weather Widgets
  • user-avatar
    Login

    Hourly Weather Golden Sands

    Today, 20 November, Tuesday

    Time Temperature Precipitation Wind Pressure Humidity
    00:00 +1°C° 0 mm 6 mps 764 mmHg 87%
    01:00 +1°C° 0 mm 6 mps 764 mmHg 87%
    02:00 +1°C° 0 mm 5 mps 765 mmHg 87%
    03:00 +1°C° 0 mm 5 mps 765 mmHg 87%
    04:00 +1°C° 0 mm 5 mps 765 mmHg 86%
    05:00 0°C° 0 mm 5 mps 765 mmHg 86%
    06:00 0°C° 0 mm 5 mps 766 mmHg 85%
    07:00 0°C° 0 mm 5 mps 766 mmHg 85%
    08:00 0°C° 0 mm 5 mps 766 mmHg 83%
    09:00 +1°C° 0 mm 5 mps 766 mmHg 78%
    10:00 +3°C° 0 mm 4 mps 766 mmHg 72%
    11:00 +4°C° 0 mm 4 mps 767 mmHg 67%
    12:00 +5°C° 0 mm 4 mps 766 mmHg 66%
    13:00 +6°C° 0 mm 4 mps 766 mmHg 64%
    14:00 +6°C° 0 mm 4 mps 766 mmHg 63%
    15:00 +6°C° 0.1 mm 4 mps 766 mmHg 66%
    16:00 +6°C° 0.1 mm 4 mps 766 mmHg 70%
    17:00 +5°C° 0.1 mm 4 mps 765 mmHg 73%
    18:00 +5°C° 0.1 mm 4 mps 765 mmHg 76%
    19:00 +6°C° 0.1 mm 4 mps 765 mmHg 78%
    20:00 +6°C° 0.1 mm 4 mps 765 mmHg 81%
    21:00 +6°C° 0.3 mm 5 mps 764 mmHg 83%
    22:00 +6°C° 0.3 mm 5 mps 764 mmHg 85%
    23:00 +5°C° 0.3 mm 6 mps 764 mmHg 87%

    Tomorrow, 21 November, Wednesday

    Time Temperature Precipitation Wind Pressure Humidity
    00:00 +5°C° 0.7 mm 6 mps 764 mmHg 89%
    01:00 +7°C° 0.7 mm 6 mps 763 mmHg 90%
    02:00 +7°C° 0.7 mm 6 mps 763 mmHg 91%
    03:00 +6°C° 0.8 mm 7 mps 762 mmHg 92%
    04:00 +6°C° 0.8 mm 7 mps 762 mmHg 93%
    05:00 +6°C° 0.8 mm 7 mps 761 mmHg 93%
    06:00 +7°C° 1 mm 8 mps 761 mmHg 93%
    07:00 +7°C° 1 mm 8 mps 761 mmHg 94%
    08:00 +7°C° 1 mm 8 mps 760 mmHg 94%
    09:00 +7°C° 1.5 mm 8 mps 760 mmHg 94%
    10:00 +7°C° 1.5 mm 8 mps 760 mmHg 93%
    11:00 +8°C° 1.5 mm 9 mps 760 mmHg 93%
    12:00 +8°C° 1.3 mm 9 mps 759 mmHg 93%
    13:00 +8°C° 1.3 mm 9 mps 759 mmHg 93%
    14:00 +8°C° 1.3 mm 9 mps 759 mmHg 93%
    15:00 +8°C° 1.2 mm 9 mps 759 mmHg 92%
    16:00 +8°C° 1.2 mm 10 mps 759 mmHg 92%
    17:00 +8°C° 1.2 mm 10 mps 759 mmHg 91%
    18:00 +8°C° 1 mm 10 mps 759 mmHg 91%
    19:00 +7°C° 1 mm 10 mps 759 mmHg 91%
    20:00 +7°C° 1 mm 10 mps 759 mmHg 90%
    21:00 +7°C° 1.2 mm 10 mps 760 mmHg 90%
    22:00 +7°C° 1.2 mm 10 mps 760 mmHg 90%
    23:00 +7°C° 1.2 mm 9 mps 760 mmHg 91%

    Day after tomorrow, 22 November, Thursday

    Time Temperature Precipitation Wind Pressure Humidity
    00:00 +7°C° 1 mm 10 mps 760 mmHg 90%
    01:00 +7°C° 1 mm 10 mps 760 mmHg 90%
    02:00 +6°C° 1 mm 10 mps 761 mmHg 89%
    03:00 +6°C° 0.7 mm 11 mps 761 mmHg 88%
    04:00 +6°C° 0.7 mm 11 mps 761 mmHg 88%
    05:00 +6°C° 0.7 mm 11 mps 762 mmHg 87%
    06:00 +6°C° 0.5 mm 11 mps 762 mmHg 86%
    07:00 +5°C° 0.5 mm 10 mps 763 mmHg 85%
    08:00 +5°C° 0.5 mm 10 mps 763 mmHg 84%
    09:00 +5°C° 0.2 mm 10 mps 764 mmHg 83%
    10:00 +5°C° 0.2 mm 10 mps 764 mmHg 82%
    11:00 +5°C° 0.2 mm 9 mps 765 mmHg 81%
    12:00 +5°C° 0.1 mm 9 mps 765 mmHg 79%
    13:00 +5°C° 0.1 mm 9 mps 765 mmHg 77%
    14:00 +5°C° 0.1 mm 9 mps 765 mmHg 75%
    15:00 +3°C° 0 mm 9 mps 765 mmHg 74%
    16:00 +4°C° 0 mm 8 mps 766 mmHg 74%
    17:00 +4°C° 0 mm 8 mps 766 mmHg 73%
    18:00 +2°C° 0 mm 8 mps 766 mmHg 72%
    19:00 +3°C° 0 mm 7 mps 767 mmHg 71%
    20:00 +2°C° 0 mm 7 mps 767 mmHg 69%
    21:00 +2°C° 0 mm 7 mps 768 mmHg 70%
    22:00 +1°C° 0 mm 6 mps 768 mmHg 71%
    23:00 +1°C° 0 mm 6 mps 768 mmHg 73%

    23 November, Friday

    Time Temperature Precipitation Wind Pressure Humidity
    00:00 -1°C° 0 mm 6 mps 768 mmHg 74%
    01:00 -1°C° 0 mm 6 mps 768 mmHg 76%
    02:00 -1°C° 0 mm 6 mps 768 mmHg 77%
    03:00 -2°C° 0 mm 6 mps 768 mmHg 78%
    04:00 -2°C° 0 mm 6 mps 769 mmHg 78%
    05:00 -2°C° 0 mm 6 mps 769 mmHg 78%
    06:00 -2°C° 0 mm 6 mps 769 mmHg 77%
    07:00 -2°C° 0 mm 6 mps 770 mmHg 76%
    08:00 -2°C° 0 mm 6 mps 770 mmHg 76%
    09:00 -1°C° 0 mm 6 mps 770 mmHg 70%
    10:00 +1°C° 0 mm 6 mps 770 mmHg 64%
    11:00 +2°C° 0 mm 6 mps 771 mmHg 58%
    12:00 +3°C° 0 mm 6 mps 771 mmHg 56%
    13:00 +4°C° 0 mm 6 mps 770 mmHg 54%
    14:00 +4°C° 0 mm 6 mps 770 mmHg 52%
    15:00 +3°C° 0 mm 5 mps 770 mmHg 55%
    16:00 +3°C° 0 mm 5 mps 771 mmHg 59%
    17:00 +2°C° 0 mm 5 mps 771 mmHg 62%
    18:00 +1°C° 0 mm 5 mps 771 mmHg 64%
    19:00 +1°C° 0 mm 5 mps 771 mmHg 65%
    20:00 +1°C° 0 mm 5 mps 771 mmHg 67%
    21:00 +1°C° 0 mm 5 mps 771 mmHg 68%
    22:00 0°C° 0 mm 4 mps 771 mmHg 68%
    23:00 0°C° 0 mm 4 mps 771 mmHg 69%

    24 November, Saturday

    Time Temperature Precipitation Wind Pressure Humidity
    00:00 0°C° 0 mm 4 mps 771 mmHg 70%
    01:00 0°C° 0 mm 4 mps 771 mmHg 71%
    02:00 0°C° 0 mm 4 mps 771 mmHg 72%
    03:00 0°C° 0 mm 4 mps 770 mmHg 72%
    04:00 0°C° 0 mm 4 mps 770 mmHg 73%
    05:00 0°C° 0 mm 4 mps 770 mmHg 73%
    06:00 0°C° 0 mm 4 mps 770 mmHg 74%
    07:00 0°C° 0 mm 4 mps 770 mmHg 74%
    08:00 +2°C° 0 mm 3 mps 770 mmHg 75%
    09:00 +3°C° 0 mm 3 mps 770 mmHg 74%
    10:00 +4°C° 0 mm 3 mps 770 mmHg 73%
    11:00 +7°C° 0 mm 3 mps 769 mmHg 72%
    12:00 +7°C° 0 mm 3 mps 769 mmHg 71%
    13:00 +8°C° 0 mm 3 mps 768 mmHg 71%
    14:00 +9°C° 0 mm 2 mps 768 mmHg 71%
    15:00 +8°C° 0 mm 2 mps 767 mmHg 75%
    16:00 +7°C° 0 mm 2 mps 767 mmHg 78%
    17:00 +7°C° 0 mm 1 mps 767 mmHg 82%
    18:00 +7°C° 0 mm 1 mps 767 mmHg 83%
    19:00 +7°C° 0 mm 1 mps 767 mmHg 84%
    20:00 +7°C° 0 mm 1 mps 767 mmHg 85%
    21:00 +7°C° 0 mm 1 mps 767 mmHg 85%
    22:00 +7°C° 0 mm 1 mps 766 mmHg 86%
    23:00 +6°C° 0 mm 2 mps 766 mmHg 86%

    25 November, Sunday

    Time Temperature Precipitation Wind Pressure Humidity
    00:00 +6°C° 0 mm 2 mps 766 mmHg 86%
    01:00 +6°C° 0 mm 2 mps 765 mmHg 86%
    02:00 +6°C° 0 mm 2 mps 765 mmHg 86%
    03:00 +6°C° 0 mm 2 mps 765 mmHg 86%
    04:00 +6°C° 0 mm 2 mps 765 mmHg 86%
    05:00 +6°C° 0 mm 2 mps 764 mmHg 86%
    06:00 +5°C° 0 mm 3 mps 764 mmHg 86%
    07:00 +5°C° 0 mm 3 mps 764 mmHg 87%
    08:00 +5°C° 0 mm 3 mps 764 mmHg 87%
    09:00 +6°C° 0 mm 4 mps 764 mmHg 80%
    10:00 +7°C° 0 mm 4 mps 764 mmHg 74%
    11:00 +10°C° 0 mm 4 mps 763 mmHg 68%
    12:00 +9°C° 0 mm 5 mps 763 mmHg 65%
    13:00 +10°C° 0 mm 5 mps 762 mmHg 63%
    14:00 +10°C° 0 mm 5 mps 762 mmHg 60%
    15:00 +9°C° 0 mm 5 mps 761 mmHg 64%
    16:00 +9°C° 0 mm 5 mps 761 mmHg 68%
    17:00 +8°C° 0 mm 5 mps 761 mmHg 71%
    18:00 +8°C° 0 mm 5 mps 761 mmHg 72%
    19:00 +7°C° 0 mm 5 mps 761 mmHg 73%
    20:00 +7°C° 0 mm 5 mps 760 mmHg 73%
    21:00 +7°C° 0 mm 5 mps 760 mmHg 73%
    22:00 +7°C° 0 mm 5 mps 760 mmHg 74%
    23:00 +7°C° 0 mm 5 mps 760 mmHg 74%
    Show more